START_TIME,STEP,MOV.,A39,t_acc.,A33,t_acc.,P32,t_acc.,P31,t_acc.
1979-03-01 15:00:12.160 ,2,0,1.,0.8,0.,0.8,1.,0.8,4.,0.8
1979-03-01 15:00:12.960 ,2,0,2.,0.8,0.,0.8,0.,0.8,6.,0.8
1979-03-01 15:00:13.760 ,2,0,3.,0.8,0.,0.8,0.,0.8,3.,0.8
1979-03-01 15:00:14.560 ,2,0,5.,0.8,0.,0.8,0.,0.8,3.,0.8
1979-03-01 15:00:15.360 ,2,0,2.,0.8,0.,0.8,0.,0.8,4.,0.8
1979-03-01 15:00:16.160 ,2,0,4.,0.8,0.,0.8,0.,0.8,3.,0.8
1979-03-01 15:00:16.960 ,2,0,2.,0.8,0.,0.8,1.,0.8,3.,0.8
1979-03-01 15:00:17.760 ,2,0,2.,0.8,0.,0.8,0.,0.8,5.,0.8
1979-03-01 15:00:18.560 ,2,0,4.,0.8,0.,0.8,0.,0.8,6.,0.8
1979-03-01 15:00:19.360 ,2,0,4.,0.8,0.,0.8,0.,0.8,5.,0.8
1979-03-01 15:00:20.160 ,2,0,4.,0.8,0.,0.8,0.,0.8,1.,0.8
1979-03-01 15:00:20.960 ,2,0,2.,0.8,0.,0.8,0.,0.8,4.,0.8
1979-03-01 15:00:21.760 ,2,0,2.,0.8,0.,0.8,0.,0.8,3.,0.8
1979-03-01 15:00:22.560 ,2,0,3.,0.8,0.,0.8,1.,0.8,4.,0.8
1979-03-01 15:00:23.360 ,2,0,2.,0.8,0.,0.8,0.,0.8,4.,0.8
1979-03-01 15:00:24.160 ,2,0,2.,0.8,0.,0.8,0.,0.8,5.,0.8
1979-03-01 15:00:24.960 ,2,0,2.,0.8,0.,0.8,1.,0.8,6.,0.8
1979-03-01 15:00:25.760 ,2,0,2.,0.8,0.,0.8,0.,0.8,8.,0.8
1979-03-01 15:00:26.560 ,2,0,1.,0.8,0.,0.8,0.,0.8,7.,0.8
1979-03-01 15:00:27.360 ,2,0,3.,0.8,0.,0.8,0.,0.8,3.,0.8
1979-03-01 15:00:28.160 ,2,0,3.,0.8,0.,0.8,0.,0.8,5.,0.8
1979-03-01 15:00:28.960 ,2,0,2.,0.8,0.,0.8,0.,0.8,5.,0.8
1979-03-01 15:00:29.760 ,2,0,5.,0.8,0.,0.8,0.,0.8,5.,0.8
1979-03-01 15:00:30.560 ,2,0,4.,0.8,0.,0.8,0.,0.8,4.,0.8
1979-03-01 15:00:31.360 ,2,0,1.,0.8,0.,0.8,0.,0.8,3.,0.8
1979-03-01 15:00:32.160 ,2,0,0.,0.8,0.,0.8,0.,0.8,4.,0.8
1979-03-01 15:00:32.960 ,2,0,5.,0.8,0.,0.8,0.,0.8,5.,0.8
1979-03-01 15:00:33.760 ,2,0,4.,0.8,0.,0.8,0.,0.8,2.,0.8
1979-03-01 15:00:34.560 ,2,0,1.,0.8,0.,0.8,0.,0.8,6.,0.8
1979-03-01 15:00:35.360 ,2,0,1.,0.8,0.,0.8,0.,0.8,4.,0.8
1979-03-01 15:00:36.160 ,1,0,4.,0.8,0.,0.8,0.,0.8,8.,0.8
1979-03-01 15:00:36.960 ,1,0,1.,0.8,0.,0.8,0.,0.8,5.,0.8
1979-03-01 15:00:37.760 ,1,0,1.,0.8,0.,0.8,1.,0.8,3.,0.8
1979-03-01 15:00:38.560 ,1,0,4.,0.8,0.,0.8,0.,0.8,4.,0.8
1979-03-01 15:00:39.360 ,1,0,5.,0.8,0.,0.8,1.,0.8,2.,0.8
1979-03-01 15:00:40.160 ,1,0,1.,0.8,0.,0.8,0.,0.8,5.,0.8
1979-03-01 15:00:40.960 ,1,0,4.,0.8,0.,0.8,0.,0.8,9.,0.8
1979-03-01 15:00:41.760 ,1,0,1.,0.8,0.,0.8,0.,0.8,3.,0.8
1979-03-01 15:00:42.560 ,1,0,2.,0.8,0.,0.8,0.,0.8,2.,0.8
1979-03-01 15:00:43.360 ,1,0,2.,0.8,0.,0.8,1.,0.8,3.,0.8
1979-03-01 15:00:44.160 ,1,0,0.,0.8,0.,0.8,0.,0.8,1.,0.8
1979-03-01 15:00:44.960 ,1,0,3.,0.8,0.,0.8,0.,0.8,9.,0.8
1979-03-01 15:00:45.760 ,1,0,1.,0.8,0.,0.8,0.,0.8,3.,0.8
1979-03-01 15:00:46.560 ,1,0,3.,0.8,0.,0.8,0.,0.8,7.,0.8
1979-03-01 15:00:47.360 ,1,0,2.,0.8,0.,0.8,0.,0.8,3.,0.8
1979-03-01 15:00:48.160 ,1,0,2.,0.8,0.,0.8,0.,0.8,2.,0.8
1979-03-01 15:00:48.960 ,1,0,2.,0.8,0.,0.8,0.,0.8,7.,0.8
1979-03-01 15:00:49.760 ,1,0,2.,0.8,0.,0.8,0.,0.8,5.,0.8
1979-03-01 15:00:50.560 ,1,0,2.,0.8,0.,0.8,0.,0.8,10.,0.8
1979-03-01 15:00:51.360 ,1,0,1.,0.8,0.,0.8,0.,0.8,2.,0.8
1979-03-01 15:00:52.160 ,1,0,4.,0.8,0.,0.8,0.,0.8,6.,0.8
1979-03-01 15:00:52.960 ,1,0,3.,0.8,0.,0.8,0.,0.8,4.,0.8
1979-03-01 15:00:53.760 ,1,0,3.,0.8,0.,0.8,0.,0.8,6.,0.8
1979-03-01 15:00:54.560 ,1,0,1.,0.8,0.,0.8,0.,0.8,4.,0.8
1979-03-01 15:00:55.360 ,1,0,5.,0.8,0.,0.8,0.,0.8,5.,0.8
1979-03-01 15:00:56.160 ,1,0,4.,0.8,1.,0.8,0.,0.8,4.,0.8
1979-03-01 15:00:56.960 ,1,0,1.,0.8,0.,0.8,0.,0.8,4.,0.8
1979-03-01 15:00:57.760 ,1,0,4.,0.8,0.,0.8,1.,0.8,2.,0.8
1979-03-01 15:00:58.560 ,1,0,0.,0.8,0.,0.8,0.,0.8,1.,0.8
1979-03-01 15:00:59.360 ,1,0,2.,0.8,0.,0.8,0.,0.8,4.,0.8
1979-03-01 15:01:00.160 ,0,0,2.,0.8,0.,0.8,1.,0.8,4.,0.8
1979-03-01 15:01:00.960 ,0,0,2.,0.8,0.,0.8,1.,0.8,5.,0.8
1979-03-01 15:01:01.760 ,0,0,1.,0.8,0.,0.8,0.,0.8,4.,0.8
1979-03-01 15:01:02.560 ,0,0,2.,0.8,0.,0.8,0.,0.8,3.,0.8
1979-03-01 15:01:03.360 ,0,0,4.,0.8,0.,0.8,0.,0.8,3.,0.8
1979-03-01 15:01:04.160 ,0,0,1.,0.8,0.,0.8,1.,0.8,7.,0.8
1979-03-01 15:01:04.960 ,0,0,0.,0.8,1.,0.8,0.,0.8,5.,0.8
1979-03-01 15:01:05.760 ,0,0,1.,0.8,0.,0.8,0.,0.8,1.,0.8
1979-03-01 15:01:06.560 ,0,0,2.,0.8,0.,0.8,0.,0.8,4.,0.8
1979-03-01 15:01:07.360 ,0,0,2.,0.8,1.,0.8,1.,0.8,7.,0.8
1979-03-01 15:01:08.160 ,0,0,3.,0.8,0.,0.8,0.,0.8,4.,0.8
1979-03-01 15:01:08.960 ,0,0,3.,0.8,0.,0.8,0.,0.8,7.,0.8
1979-03-01 15:01:09.760 ,0,0,1.,0.8,0.,0.8,0.,0.8,0.,0.8
1979-03-01 15:01:10.560 ,0,0,4.,0.8,0.,0.8,0.,0.8,3.,0.8
1979-03-01 15:01:11.360 ,0,0,1.,0.8,0.,0.8,0.,0.8,3.,0.8
1979-03-01 15:01:12.160 ,0,0,2.,0.8,0.,0.8,0.,0.8,3.,0.8
1979-03-01 15:01:12.960 ,0,0,2.,0.8,0.,0.8,0.,0.8,4.,0.8
1979-03-01 15:01:13.760 ,0,0,3.,0.8,0.,0.8,0.,0.8,4.,0.8
1979-03-01 15:01:14.560 ,0,0,4.,0.8,0.,0.8,0.,0.8,5.,0.8
1979-03-01 15:01:15.360 ,0,0,0.,0.8,1.,0.8,0.,0.8,1.,0.8
1979-03-01 15:01:16.160 ,0,0,2.,0.8,0.,0.8,0.,0.8,5.,0.8
1979-03-01 15:01:16.960 ,0,0,2.,0.8,0.,0.8,0.,0.8,4.,0.8
1979-03-01 15:01:17.760 ,0,0,1.,0.8,0.,0.8,0.,0.8,1.,0.8
1979-03-01 15:01:18.560 ,0,0,1.,0.8,0.,0.8,0.,0.8,1.,0.8
1979-03-01 15:01:19.360 ,0,0,2.,0.8,0.,0.8,0.,0.8,6.,0.8
1979-03-01 15:01:20.160 ,0,0,3.,0.8,0.,0.8,0.,0.8,5.,0.8
1979-03-01 15:01:20.960 ,0,0,3.,0.8,0.,0.8,0.,0.8,6.,0.8
1979-03-01 15:01:21.760 ,0,0,3.,0.8,0.,0.8,0.,0.8,3.,0.8
1979-03-01 15:01:22.560 ,0,0,2.,0.8,0.,0.8,0.,0.8,2.,0.8
1979-03-01 15:01:23.360 ,0,0,2.,0.8,0.,0.8,0.,0.8,2.,0.8
1979-03-01 15:01:24.160 ,0,0,2.,0.8,0.,0.8,0.,0.8,3.,0.8
1979-03-01 15:01:24.960 ,0,0,2.,0.8,0.,0.8,0.,0.8,5.,0.8
1979-03-01 15:01:25.760 ,0,0,1.,0.8,0.,0.8,0.,0.8,8.,0.8
1979-03-01 15:01:26.560 ,0,0,4.,0.8,0.,0.8,1.,0.8,6.,0.8
1979-03-01 15:01:27.360 ,0,0,3.,0.8,0.,0.8,0.,0.8,3.,0.8
1979-03-01 15:01:28.160 ,0,0,1.,0.8,0.,0.8,0.,0.8,3.,0.8
1979-03-01 15:01:28.960 ,0,0,1.,0.8,0.,0.8,0.,0.8,6.,0.8
1979-03-01 15:01:29.760 ,0,0,2.,0.8,0.,0.8,0.,0.8,5.,0.8
1979-03-01 15:01:30.560 ,0,0,4.,0.8,0.,0.8,0.,0.8,2.,0.8
1979-03-01 15:01:31.360 ,0,0,5.,0.8,0.,0.8,0.,0.8,6.,0.8
1979-03-01 15:01:32.160 ,0,0,2.,0.8,0.,0.8,0.,0.8,8.,0.8
1979-03-01 15:01:32.960 ,0,0,1.,0.8,0.,0.8,1.,0.8,3.,0.8
1979-03-01 15:01:33.760 ,0,0,1.,0.8,0.,0.8,1.,0.8,4.,0.8
1979-03-01 15:01:34.560 ,0,0,2.,0.8,0.,0.8,0.,0.8,4.,0.8
1979-03-01 15:01:35.360 ,0,0,2.,0.8,0.,0.8,0.,0.8,4.,0.8
1979-03-01 15:01:36.160 ,0,0,0.,0.8,0.,0.8,0.,0.8,3.,0.8
1979-03-01 15:01:36.960 ,0,0,2.,0.8,0.,0.8,0.,0.8,8.,0.8
1979-03-01 15:01:37.760 ,0,0,1.,0.8,0.,0.8,0.,0.8,6.,0.8
1979-03-01 15:01:38.560 ,0,0,1.,0.8,1.,0.8,0.,0.8,6.,0.8
1979-03-01 15:01:39.360 ,0,0,2.,0.8,0.,0.8,0.,0.8,4.,0.8
1979-03-01 15:01:40.160 ,0,0,0.,0.8,0.,0.8,0.,0.8,2.,0.8
1979-03-01 15:01:40.960 ,0,0,2.,0.8,0.,0.8,0.,0.8,3.,0.8
1979-03-01 15:01:41.760 ,0,0,0.,0.8,0.,0.8,0.,0.8,3.,0.8
1979-03-01 15:01:42.560 ,0,0,3.,0.8,1.,0.8,0.,0.8,2.,0.8
1979-03-01 15:01:43.360 ,0,0,1.,0.8,1.,0.8,0.,0.8,7.,0.8
1979-03-01 15:01:44.160 ,0,0,3.,0.8,1.,0.8,0.,0.8,4.,0.8
1979-03-01 15:01:44.960 ,0,0,3.,0.8,0.,0.8,0.,0.8,5.,0.8
1979-03-01 15:01:45.760 ,0,0,3.,0.8,0.,0.8,0.,0.8,5.,0.8
1979-03-01 15:01:46.560 ,0,0,1.,0.8,0.,0.8,0.,0.8,6.,0.8
1979-03-01 15:01:47.360 ,0,0,1.,0.8,1.,0.8,0.,0.8,2.,0.8
1979-03-01 15:01:48.160 ,1,0,2.,0.8,0.,0.8,0.,0.8,6.,0.8
1979-03-01 15:01:48.960 ,1,0,2.,0.8,0.,0.8,0.,0.8,5.,0.8
1979-03-01 15:01:49.760 ,1,0,1.,0.8,0.,0.8,0.,0.8,4.,0.8
1979-03-01 15:01:50.560 ,1,0,2.,0.8,0.,0.8,0.,0.8,4.,0.8
1979-03-01 15:01:51.360 ,1,0,1.,0.8,1.,0.8,0.,0.8,6.,0.8
1979-03-01 15:01:52.160 ,1,0,2.,0.8,0.,0.8,1.,0.8,3.,0.8
1979-03-01 15:01:52.960 ,1,0,3.,0.8,1.,0.8,0.,0.8,4.,0.8
1979-03-01 15:01:53.760 ,1,0,2.,0.8,0.,0.8,0.,0.8,1.,0.8
1979-03-01 15:01:54.560 ,1,0,2.,0.8,0.,0.8,0.,0.8,3.,0.8
1979-03-01 15:01:55.360 ,1,0,3.,0.8,0.,0.8,0.,0.8,6.,0.8
1979-03-01 15:01:56.160 ,1,0,0.,0.8,0.,0.8,1.,0.8,4.,0.8
1979-03-01 15:01:56.960 ,1,0,1.,0.8,0.,0.8,0.,0.8,5.,0.8
1979-03-01 15:01:57.760 ,1,0,3.,0.8,0.,0.8,0.,0.8,3.,0.8
1979-03-01 15:01:58.560 ,1,0,1.,0.8,0.,0.8,0.,0.8,3.,0.8
1979-03-01 15:01:59.360 ,1,0,1.,0.8,0.,0.8,0.,0.8,4.,0.8
1979-03-01 15:02:00.160 ,1,0,2.,0.8,0.,0.8,0.,0.8,4.,0.8
1979-03-01 15:02:00.960 ,1,0,6.,0.8,0.,0.8,0.,0.8,6.,0.8
1979-03-01 15:02:01.760 ,1,0,2.,0.8,0.,0.8,0.,0.8,6.,0.8
1979-03-01 15:02:02.560 ,1,0,2.,0.8,0.,0.8,0.,0.8,3.,0.8
1979-03-01 15:02:03.360 ,1,0,0.,0.8,0.,0.8,0.,0.8,5.,0.8
1979-03-01 15:02:04.160 ,1,0,1.,0.8,0.,0.8,0.,0.8,3.,0.8
1979-03-01 15:02:04.960 ,1,0,2.,0.8,0.,0.8,1.,0.8,11.,0.8
1979-03-01 15:02:05.760 ,1,0,5.,0.8,0.,0.8,0.,0.8,5.,0.8
1979-03-01 15:02:06.560 ,1,0,0.,0.8,0.,0.8,0.,0.8,1.,0.8
1979-03-01 15:02:07.360 ,1,0,3.,0.8,0.,0.8,0.,0.8,5.,0.8
1979-03-01 15:02:08.160 ,1,0,2.,0.8,0.,0.8,0.,0.8,6.,0.8
1979-03-01 15:02:08.960 ,1,0,2.,0.8,0.,0.8,0.,0.8,8.,0.8
1979-03-01 15:02:09.760 ,1,0,2.,0.8,0.,0.8,0.,0.8,2.,0.8
1979-03-01 15:02:10.560 ,1,0,1.,0.8,0.,0.8,0.,0.8,3.,0.8
1979-03-01 15:02:11.360 ,1,0,2.,0.8,0.,0.8,0.,0.8,5.,0.8
1979-03-01 15:02:12.160 ,2,0,2.,0.8,0.,0.8,0.,0.8,4.,0.8
1979-03-01 15:02:12.960 ,2,0,3.,0.8,1.,0.8,0.,0.8,3.,0.8
1979-03-01 15:02:13.760 ,2,0,3.,0.8,0.,0.8,0.,0.8,12.,0.8
1979-03-01 15:02:14.560 ,2,0,3.,0.8,0.,0.8,1.,0.8,5.,0.8
1979-03-01 15:02:15.360 ,2,0,2.,0.8,0.,0.8,1.,0.8,5.,0.8
1979-03-01 15:02:16.160 ,2,0,1.,0.8,0.,0.8,0.,0.8,7.,0.8
1979-03-01 15:02:16.960 ,2,0,0.,0.8,0.,0.8,0.,0.8,5.,0.8
1979-03-01 15:02:17.760 ,2,0,3.,0.8,0.,0.8,0.,0.8,4.,0.8
1979-03-01 15:02:18.560 ,2,0,2.,0.8,0.,0.8,1.,0.8,8.,0.8
1979-03-01 15:02:19.360 ,2,0,1.,0.8,0.,0.8,2.,0.8,6.,0.8
1979-03-01 15:02:20.160 ,2,0,3.,0.8,0.,0.8,0.,0.8,5.,0.8
1979-03-01 15:02:20.960 ,2,0,3.,0.8,0.,0.8,1.,0.8,2.,0.8
1979-03-01 15:02:21.760 ,2,0,2.,0.8,0.,0.8,0.,0.8,3.,0.8
1979-03-01 15:02:22.560 ,2,0,4.,0.8,0.,0.8,0.,0.8,4.,0.8
1979-03-01 15:02:23.360 ,2,0,3.,0.8,0.,0.8,0.,0.8,4.,0.8
1979-03-01 15:02:24.160 ,2,0,4.,0.8,1.,0.8,0.,0.8,6.,0.8
1979-03-01 15:02:24.960 ,2,0,1.,0.8,0.,0.8,0.,0.8,4.,0.8
1979-03-01 15:02:25.760 ,2,0,2.,0.8,0.,0.8,0.,0.8,5.,0.8
1979-03-01 15:02:26.560 ,2,0,1.,0.8,0.,0.8,0.,0.8,6.,0.8
1979-03-01 15:02:27.360 ,2,0,3.,0.8,0.,0.8,1.,0.8,4.,0.8
1979-03-01 15:02:28.160 ,2,0,,0,,0,,0,,0
1979-03-01 15:02:28.960 ,2,0,,0,,0,,0,,0
1979-03-01 15:02:29.760 ,2,0,1.,0.8,0.,0.8,0.,0.8,2.,0.8
1979-03-01 15:02:30.560 ,2,0,2.,0.8,0.,0.8,0.,0.8,3.,0.8
1979-03-01 15:02:31.360 ,2,0,3.,0.8,0.,0.8,1.,0.8,4.,0.8
1979-03-01 15:02:32.160 ,2,0,3.,0.8,0.,0.8,0.,0.8,9.,0.8
1979-03-01 15:02:32.960 ,2,0,1.,0.8,0.,0.8,0.,0.8,8.,0.8
1979-03-01 15:02:33.760 ,2,0,2.,0.8,0.,0.8,0.,0.8,4.,0.8
1979-03-01 15:02:34.560 ,2,0,2.,0.8,0.,0.8,0.,0.8,5.,0.8
1979-03-01 15:02:35.360 ,2,0,2.,0.8,1.,0.8,0.,0.8,5.,0.8
1979-03-01 15:02:36.160 ,0,0,3.,0.8,0.,0.8,0.,0.8,9.,0.8
1979-03-01 15:02:36.960 ,0,0,2.,0.8,0.,0.8,0.,0.8,1.,0.8
1979-03-01 15:02:37.760 ,0,0,5.,0.8,0.,0.8,0.,0.8,4.,0.8
1979-03-01 15:02:38.560 ,0,0,3.,0.8,0.,0.8,0.,0.8,5.,0.8
1979-03-01 15:02:39.360 ,0,0,3.,0.8,0.,0.8,0.,0.8,4.,0.8
1979-03-01 15:02:40.160 ,0,0,1.,0.8,1.,0.8,1.,0.8,2.,0.8
1979-03-01 15:02:40.960 ,0,0,1.,0.8,0.,0.8,0.,0.8,3.,0.8
1979-03-01 15:02:41.760 ,0,0,3.,0.8,1.,0.8,0.,0.8,6.,0.8
1979-03-01 15:02:42.560 ,0,0,2.,0.8,0.,0.8,0.,0.8,5.,0.8
1979-03-01 15:02:43.360 ,0,0,2.,0.8,0.,0.8,0.,0.8,2.,0.8
1979-03-01 15:02:44.160 ,0,0,0.,0.8,0.,0.8,0.,0.8,3.,0.8
1979-03-01 15:02:44.960 ,0,0,2.,0.8,0.,0.8,0.,0.8,5.,0.8
1979-03-01 15:02:45.760 ,0,0,3.,0.8,0.,0.8,0.,0.8,4.,0.8
1979-03-01 15:02:46.560 ,0,0,1.,0.8,0.,0.8,0.,0.8,3.,0.8
1979-03-01 15:02:47.360 ,0,0,2.,0.8,0.,0.8,0.,0.8,2.,0.8
1979-03-01 15:02:48.160 ,0,0,2.,0.8,0.,0.8,0.,0.8,4.,0.8
1979-03-01 15:02:48.960 ,0,0,2.,0.8,1.,0.8,0.,0.8,4.,0.8
1979-03-01 15:02:49.760 ,0,0,4.,0.8,0.,0.8,0.,0.8,3.,0.8
1979-03-01 15:02:50.560 ,0,0,4.,0.8,0.,0.8,0.,0.8,6.,0.8
1979-03-01 15:02:51.360 ,0,0,3.,0.8,0.,0.8,0.,0.8,7.,0.8
1979-03-01 15:02:52.160 ,0,0,4.,0.8,0.,0.8,0.,0.8,4.,0.8
1979-03-01 15:02:52.960 ,0,0,3.,0.8,0.,0.8,1.,0.8,4.,0.8
1979-03-01 15:02:53.760 ,0,0,4.,0.8,0.,0.8,0.,0.8,7.,0.8
1979-03-01 15:02:54.560 ,0,0,2.,0.8,0.,0.8,0.,0.8,5.,0.8
1979-03-01 15:02:55.360 ,0,0,,0,,0,,0,,0
1979-03-01 15:02:56.160 ,0,0,,0,,0,,0,,0
1979-03-01 15:02:56.960 ,0,0,,0,,0,,0,,0
1979-03-01 15:02:57.760 ,0,0,,0,,0,,0,,0
1979-03-01 15:02:58.560 ,0,0,,0,,0,,0,,0
1979-03-01 15:02:59.360 ,0,0,,0,,0,,0,,0
1979-03-01 15:02:55.360 ,3,0,,0,,0,,0,,0
1979-03-01 15:02:56.160 ,3,0,,0,,0,,0,,0
1979-03-01 15:02:56.960 ,3,0,,0,,0,,0,,0
1979-03-01 15:02:57.760 ,3,0,,0,,0,,0,,0
1979-03-01 15:02:58.560 ,3,0,,0,,0,,0,,0
1979-03-01 15:02:59.360 ,3,0,,0,,0,,0,,0
1979-03-01 15:03:00.160 ,3,0,,0,,0,,0,,0
1979-03-01 15:03:00.960 ,3,0,,0,,0,,0,,0
1979-03-01 15:03:01.760 ,3,0,,0,,0,,0,,0
1979-03-01 15:03:02.560 ,3,0,,0,,0,,0,,0
1979-03-01 15:03:03.360 ,3,0,,0,,0,,0,,0
1979-03-01 15:03:04.160 ,3,0,,0,,0,,0,,0
1979-03-01 15:03:04.960 ,3,0,,0,,0,,0,,0
1979-03-01 15:03:05.760 ,3,0,,0,,0,,0,,0
1979-03-01 15:03:06.560 ,3,0,,0,,0,,0,,0
1979-03-01 15:03:07.360 ,3,0,,0,,0,,0,,0
1979-03-01 15:03:08.160 ,3,0,,0,,0,,0,,0
1979-03-01 15:03:08.960 ,3,0,,0,,0,,0,,0
1979-03-01 15:03:09.760 ,3,0,,0,,0,,0,,0
1979-03-01 15:03:10.560 ,3,0,,0,,0,,0,,0
1979-03-01 15:03:11.360 ,3,0,,0,,0,,0,,0
1979-03-01 15:03:12.160 ,3,0,,0,,0,,0,,0
1979-03-01 15:03:12.960 ,3,0,,0,,0,,0,,0
1979-03-01 15:03:13.760 ,3,0,,0,,0,,0,,0
1979-03-01 15:03:14.560 ,3,0,5.,0.8,0.,0.8,0.,0.8,2.,0.8
1979-03-01 15:03:15.360 ,3,0,3.,0.8,0.,0.8,0.,0.8,6.,0.8
1979-03-01 15:03:16.160 ,3,0,2.,0.8,0.,0.8,0.,0.8,3.,0.8
1979-03-01 15:03:16.960 ,3,0,2.,0.8,0.,0.8,0.,0.8,5.,0.8
1979-03-01 15:03:17.760 ,3,0,2.,0.8,0.,0.8,0.,0.8,4.,0.8
1979-03-01 15:03:18.560 ,3,0,5.,0.8,0.,0.8,0.,0.8,2.,0.8
1979-03-01 15:03:00.160 ,4,0,3.,0.8,0.,0.8,0.,0.8,5.,0.8
1979-03-01 15:03:00.960 ,4,0,4.,0.8,0.,0.8,0.,0.8,2.,0.8
1979-03-01 15:03:01.760 ,4,0,3.,0.8,0.,0.8,0.,0.8,5.,0.8
1979-03-01 15:03:02.560 ,4,0,3.,0.8,0.,0.8,0.,0.8,1.,0.8
1979-03-01 15:03:03.360 ,4,0,1.,0.8,0.,0.8,1.,0.8,3.,0.8
1979-03-01 15:03:04.160 ,4,0,2.,0.8,0.,0.8,0.,0.8,2.,0.8
1979-03-01 15:03:04.960 ,4,0,2.,0.8,0.,0.8,0.,0.8,3.,0.8
1979-03-01 15:03:05.760 ,4,0,2.,0.8,1.,0.8,0.,0.8,5.,0.8
1979-03-01 15:03:06.560 ,4,0,3.,0.8,0.,0.8,0.,0.8,4.,0.8
1979-03-01 15:03:07.360 ,4,0,2.,0.8,0.,0.8,0.,0.8,3.,0.8
1979-03-01 15:03:08.160 ,4,0,2.,0.8,0.,0.8,0.,0.8,4.,0.8
1979-03-01 15:03:08.960 ,4,0,1.,0.8,0.,0.8,0.,0.8,1.,0.8
1979-03-01 15:03:09.760 ,4,0,4.,0.8,0.,0.8,0.,0.8,4.,0.8
1979-03-01 15:03:10.560 ,4,0,0.,0.8,0.,0.8,0.,0.8,1.,0.8
1979-03-01 15:03:11.360 ,4,0,2.,0.8,0.,0.8,0.,0.8,8.,0.8
1979-03-01 15:03:12.160 ,4,0,1.,0.8,0.,0.8,0.,0.8,1.,0.8
1979-03-01 15:03:12.960 ,4,0,1.,0.8,0.,0.8,0.,0.8,2.,0.8
1979-03-01 15:03:13.760 ,4,0,2.,0.8,0.,0.8,0.,0.8,4.,0.8
1979-03-01 15:03:14.560 ,4,0,1.,0.8,0.,0.8,0.,0.8,0.,0.8
1979-03-01 15:03:15.360 ,4,0,,0,,0,,0,,0
1979-03-01 15:03:16.160 ,4,0,3.,0.8,0.,0.8,0.,0.8,8.,0.8
1979-03-01 15:03:16.960 ,4,0,4.,0.8,0.,0.8,0.,0.8,6.,0.8
1979-03-01 15:03:17.760 ,4,0,0.,0.8,0.,0.8,0.,0.8,4.,0.8
1979-03-01 15:03:18.560 ,4,0,1.,0.8,0.,0.8,0.,0.8,5.,0.8
1979-03-01 15:03:19.360 ,4,0,2.,0.8,0.,0.8,0.,0.8,5.,0.8
1979-03-01 15:03:20.160 ,4,0,2.,0.8,0.,0.8,0.,0.8,4.,0.8
1979-03-01 15:03:20.960 ,4,0,3.,0.8,0.,0.8,1.,0.8,4.,0.8
1979-03-01 15:03:21.760 ,4,0,3.,0.8,0.,0.8,0.,0.8,3.,0.8
1979-03-01 15:03:22.560 ,4,0,3.,0.8,0.,0.8,1.,0.8,4.,0.8
1979-03-01 15:03:23.360 ,4,0,2.,0.8,0.,0.8,0.,0.8,4.,0.8
1979-03-01 15:03:24.160 ,5,0,2.,0.8,0.,0.8,0.,0.8,4.,0.8
1979-03-01 15:03:24.960 ,5,0,5.,0.8,0.,0.8,0.,0.8,8.,0.8
1979-03-01 15:03:25.760 ,5,0,1.,0.8,0.,0.8,0.,0.8,8.,0.8
1979-03-01 15:03:26.560 ,5,0,1.,0.8,1.,0.8,0.,0.8,3.,0.8
1979-03-01 15:03:27.360 ,5,0,3.,0.8,1.,0.8,0.,0.8,5.,0.8
1979-03-01 15:03:28.160 ,5,0,0.,0.8,0.,0.8,0.,0.8,1.,0.8
1979-03-01 15:03:28.960 ,5,0,2.,0.8,0.,0.8,0.,0.8,8.,0.8
1979-03-01 15:03:29.760 ,5,0,1.,0.8,0.,0.8,0.,0.8,5.,0.8
1979-03-01 15:03:30.560 ,5,0,2.,0.8,0.,0.8,0.,0.8,4.,0.8
1979-03-01 15:03:31.360 ,5,0,2.,0.8,0.,0.8,0.,0.8,6.,0.8
1979-03-01 15:03:32.160 ,5,0,1.,0.8,0.,0.8,0.,0.8,7.,0.8
1979-03-01 15:03:32.960 ,5,0,2.,0.8,0.,0.8,0.,0.8,3.,0.8
1979-03-01 15:03:33.760 ,5,0,1.,0.8,0.,0.8,0.,0.8,6.,0.8
1979-03-01 15:03:34.560 ,5,0,0.,0.8,0.,0.8,1.,0.8,2.,0.8
1979-03-01 15:03:35.360 ,5,0,1.,0.8,0.,0.8,0.,0.8,1.,0.8
1979-03-01 15:03:36.160 ,5,0,1.,0.8,0.,0.8,0.,0.8,6.,0.8
1979-03-01 15:03:36.960 ,5,0,2.,0.8,0.,0.8,0.,0.8,4.,0.8
1979-03-01 15:03:37.760 ,5,0,1.,0.8,0.,0.8,0.,0.8,4.,0.8
1979-03-01 15:03:38.560 ,5,0,4.,0.8,0.,0.8,0.,0.8,9.,0.8
1979-03-01 15:03:39.360 ,5,0,2.,0.8,0.,0.8,0.,0.8,7.,0.8
1979-03-01 15:03:40.160 ,5,0,2.,0.8,1.,0.8,0.,0.8,2.,0.8
1979-03-01 15:03:40.960 ,5,0,3.,0.8,0.,0.8,1.,0.8,3.,0.8
1979-03-01 15:03:41.760 ,5,0,1.,0.8,0.,0.8,0.,0.8,5.,0.8
1979-03-01 15:03:42.560 ,5,0,2.,0.8,0.,0.8,1.,0.8,7.,0.8
1979-03-01 15:03:43.360 ,5,0,2.,0.8,0.,0.8,0.,0.8,4.,0.8
1979-03-01 15:03:44.160 ,5,0,1.,0.8,0.,0.8,0.,0.8,8.,0.8
1979-03-01 15:03:44.960 ,5,0,4.,0.8,0.,0.8,0.,0.8,4.,0.8
1979-03-01 15:03:45.760 ,5,0,2.,0.8,0.,0.8,0.,0.8,4.,0.8
1979-03-01 15:03:46.560 ,5,0,2.,0.8,0.,0.8,0.,0.8,6.,0.8
1979-03-01 15:03:47.360 ,5,0,0.,0.8,0.,0.8,0.,0.8,2.,0.8
1979-03-01 15:03:48.160 ,6,0,2.,0.8,0.,0.8,0.,0.8,2.,0.8
1979-03-01 15:03:48.960 ,6,0,3.,0.8,0.,0.8,1.,0.8,9.,0.8
1979-03-01 15:03:49.760 ,6,0,2.,0.8,0.,0.8,0.,0.8,4.,0.8
1979-03-01 15:03:50.560 ,6,0,3.,0.8,0.,0.8,0.,0.8,5.,0.8
1979-03-01 15:03:51.360 ,6,0,2.,0.8,0.,0.8,0.,0.8,2.,0.8
1979-03-01 15:03:52.160 ,6,0,0.,0.8,0.,0.8,0.,0.8,4.,0.8
1979-03-01 15:03:52.960 ,6,0,1.,0.8,0.,0.8,0.,0.8,6.,0.8
1979-03-01 15:03:53.760 ,6,0,1.,0.8,0.,0.8,0.,0.8,5.,0.8
1979-03-01 15:03:54.560 ,6,0,1.,0.8,0.,0.8,0.,0.8,5.,0.8
1979-03-01 15:03:55.360 ,6,0,1.,0.8,0.,0.8,0.,0.8,2.,0.8
1979-03-01 15:03:56.160 ,6,0,2.,0.8,0.,0.8,0.,0.8,5.,0.8
1979-03-01 15:03:56.960 ,6,0,2.,0.8,0.,0.8,0.,0.8,5.,0.8
1979-03-01 15:03:57.760 ,6,0,2.,0.8,0.,0.8,0.,0.8,2.,0.8
1979-03-01 15:03:58.560 ,6,0,2.,0.8,0.,0.8,0.,0.8,4.,0.8
1979-03-01 15:03:59.360 ,6,0,2.,0.8,0.,0.8,0.,0.8,4.,0.8
1979-03-01 15:04:00.160 ,6,0,1.,0.8,0.,0.8,0.,0.8,1.,0.8
1979-03-01 15:04:00.960 ,6,0,3.,0.8,0.,0.8,0.,0.8,8.,0.8
1979-03-01 15:04:01.760 ,6,0,2.,0.8,0.,0.8,0.,0.8,7.,0.8
1979-03-01 15:04:02.560 ,6,0,0.,0.8,0.,0.8,0.,0.8,5.,0.8
1979-03-01 15:04:03.360 ,6,0,2.,0.8,0.,0.8,0.,0.8,6.,0.8
1979-03-01 15:04:04.160 ,6,0,0.,0.8,0.,0.8,0.,0.8,1.,0.8
1979-03-01 15:04:04.960 ,6,0,0.,0.8,1.,0.8,0.,0.8,6.,0.8
1979-03-01 15:04:05.760 ,6,0,1.,0.8,0.,0.8,0.,0.8,5.,0.8
1979-03-01 15:04:06.560 ,6,0,1.,0.8,0.,0.8,0.,0.8,2.,0.8
1979-03-01 15:04:07.360 ,6,0,1.,0.8,0.,0.8,0.,0.8,5.,0.8
1979-03-01 15:04:08.160 ,6,0,1.,0.8,0.,0.8,0.,0.8,4.,0.8
1979-03-01 15:04:08.960 ,6,0,0.,0.8,0.,0.8,1.,0.8,2.,0.8
1979-03-01 15:04:09.760 ,6,0,3.,0.8,0.,0.8,0.,0.8,4.,0.8
1979-03-01 15:04:10.560 ,6,0,1.,0.8,0.,0.8,0.,0.8,5.,0.8
1979-03-01 15:04:11.360 ,6,0,2.,0.8,0.,0.8,0.,0.8,3.,0.8
1979-03-01 15:04:12.160 ,7,0,2.,0.8,0.,0.8,0.,0.8,2.,0.8
1979-03-01 15:04:12.960 ,7,0,0.,0.8,0.,0.8,0.,0.8,0.,0.8
1979-03-01 15:04:13.760 ,7,0,0.,0.8,0.,0.8,1.,0.8,3.,0.8
1979-03-01 15:04:14.560 ,7,0,0.,0.8,0.,0.8,0.,0.8,4.,0.8
1979-03-01 15:04:15.360 ,7,0,4.,0.8,1.,0.8,0.,0.8,9.,0.8
1979-03-01 15:04:16.160 ,7,0,3.,0.8,0.,0.8,0.,0.8,8.,0.8
1979-03-01 15:04:16.960 ,7,0,2.,0.8,0.,0.8,0.,0.8,4.,0.8
1979-03-01 15:04:17.760 ,7,0,0.,0.8,0.,0.8,0.,0.8,3.,0.8
1979-03-01 15:04:18.560 ,7,0,2.,0.8,0.,0.8,0.,0.8,4.,0.8
1979-03-01 15:04:19.360 ,7,0,2.,0.8,0.,0.8,0.,0.8,3.,0.8
1979-03-01 15:04:20.160 ,7,0,1.,0.8,0.,0.8,0.,0.8,3.,0.8
1979-03-01 15:04:20.960 ,7,0,1.,0.8,0.,0.8,0.,0.8,4.,0.8
1979-03-01 15:04:21.760 ,7,0,3.,0.8,0.,0.8,0.,0.8,4.,0.8
1979-03-01 15:04:22.560 ,7,0,0.,0.8,0.,0.8,0.,0.8,3.,0.8
1979-03-01 15:04:23.360 ,7,0,2.,0.8,0.,0.8,0.,0.8,3.,0.8
1979-03-01 15:04:24.160 ,7,0,3.,0.8,0.,0.8,0.,0.8,6.,0.8
1979-03-01 15:04:24.960 ,7,0,1.,0.8,0.,0.8,0.,0.8,3.,0.8
1979-03-01 15:04:25.760 ,7,0,3.,0.8,0.,0.8,0.,0.8,5.,0.8
1979-03-01 15:04:26.560 ,7,0,2.,0.8,0.,0.8,0.,0.8,5.,0.8
1979-03-01 15:04:27.360 ,7,0,1.,0.8,0.,0.8,0.,0.8,2.,0.8
1979-03-01 15:04:28.160 ,7,0,1.,0.8,0.,0.8,0.,0.8,3.,0.8
1979-03-01 15:04:28.960 ,7,0,2.,0.8,0.,0.8,0.,0.8,6.,0.8
1979-03-01 15:04:29.760 ,7,0,3.,0.8,0.,0.8,0.,0.8,2.,0.8
1979-03-01 15:04:30.560 ,7,0,0.,0.8,0.,0.8,0.,0.8,3.,0.8
1979-03-01 15:04:31.360 ,7,0,4.,0.8,0.,0.8,0.,0.8,11.,0.8
1979-03-01 15:04:32.160 ,7,0,0.,0.8,0.,0.8,0.,0.8,5.,0.8
1979-03-01 15:04:32.960 ,7,0,0.,0.8,0.,0.8,0.,0.8,2.,0.8
1979-03-01 15:04:33.760 ,7,0,2.,0.8,0.,0.8,0.,0.8,6.,0.8
1979-03-01 15:04:34.560 ,7,0,0.,0.8,0.,0.8,0.,0.8,4.,0.8
1979-03-01 15:04:35.360 ,7,0,4.,0.8,0.,0.8,0.,0.8,6.,0.8
1979-03-01 15:04:36.160 ,7,0,3.,0.8,0.,0.8,0.,0.8,6.,0.8
1979-03-01 15:04:36.960 ,7,0,3.,0.8,0.,0.8,0.,0.8,5.,0.8
1979-03-01 15:04:37.760 ,7,0,1.,0.8,0.,0.8,0.,0.8,5.,0.8
1979-03-01 15:04:38.560 ,7,0,2.,0.8,0.,0.8,0.,0.8,4.,0.8
1979-03-01 15:04:39.360 ,7,0,1.,0.8,0.,0.8,0.,0.8,3.,0.8
1979-03-01 15:04:40.160 ,7,0,0.,0.8,0.,0.8,0.,0.8,2.,0.8
1979-03-01 15:04:40.960 ,7,0,1.,0.8,0.,0.8,0.,0.8,4.,0.8
1979-03-01 15:04:41.760 ,7,0,3.,0.8,0.,0.8,0.,0.8,4.,0.8
1979-03-01 15:04:42.560 ,7,0,0.,0.8,0.,0.8,0.,0.8,4.,0.8
1979-03-01 15:04:43.360 ,7,0,0.,0.8,0.,0.8,0.,0.8,5.,0.8
1979-03-01 15:04:44.160 ,7,0,0.,0.8,0.,0.8,0.,0.8,2.,0.8
1979-03-01 15:04:44.960 ,7,0,0.,0.8,0.,0.8,0.,0.8,5.,0.8
1979-03-01 15:04:45.760 ,7,0,0.,0.8,0.,0.8,0.,0.8,4.,0.8
1979-03-01 15:04:46.560 ,7,0,0.,0.8,0.,0.8,0.,0.8,2.,0.8
1979-03-01 15:04:47.360 ,7,0,4.,0.8,0.,0.8,0.,0.8,6.,0.8
1979-03-01 15:04:48.160 ,7,0,1.,0.8,0.,0.8,0.,0.8,7.,0.8
1979-03-01 15:04:48.960 ,7,0,2.,0.8,0.,0.8,0.,0.8,9.,0.8
1979-03-01 15:04:49.760 ,7,0,2.,0.8,0.,0.8,0.,0.8,3.,0.8
1979-03-01 15:04:50.560 ,7,0,1.,0.8,0.,0.8,0.,0.8,4.,0.8
1979-03-01 15:04:51.360 ,7,0,1.,0.8,0.,0.8,0.,0.8,3.,0.8
1979-03-01 15:04:52.160 ,7,0,2.,0.8,0.,0.8,0.,0.8,1.,0.8
1979-03-01 15:04:52.960 ,7,0,0.,0.8,0.,0.8,0.,0.8,5.,0.8
1979-03-01 15:04:53.760 ,7,0,1.,0.8,0.,0.8,0.,0.8,2.,0.8
1979-03-01 15:04:54.560 ,7,0,2.,0.8,0.,0.8,0.,0.8,6.,0.8
1979-03-01 15:04:55.360 ,7,0,3.,0.8,0.,0.8,0.,0.8,5.,0.8
1979-03-01 15:04:56.160 ,7,0,4.,0.8,0.,0.8,0.,0.8,3.,0.8
1979-03-01 15:04:56.960 ,7,0,1.,0.8,0.,0.8,0.,0.8,2.,0.8
1979-03-01 15:04:57.760 ,7,0,2.,0.8,0.,0.8,0.,0.8,3.,0.8
1979-03-01 15:04:58.560 ,7,0,0.,0.8,0.,0.8,0.,0.8,3.,0.8
1979-03-01 15:04:59.360 ,7,0,4.,0.8,0.,0.8,0.,0.8,5.,0.8
1979-03-01 15:05:00.160 ,6,0,2.,0.8,0.,0.8,0.,0.8,3.,0.8
1979-03-01 15:05:00.960 ,6,0,2.,0.8,0.,0.8,0.,0.8,2.,0.8
1979-03-01 15:05:01.760 ,6,0,0.,0.8,0.,0.8,0.,0.8,5.,0.8
1979-03-01 15:05:02.560 ,6,0,3.,0.8,0.,0.8,0.,0.8,5.,0.8
1979-03-01 15:05:03.360 ,6,0,3.,0.8,0.,0.8,0.,0.8,5.,0.8
1979-03-01 15:05:04.160 ,6,0,0.,0.8,0.,0.8,0.,0.8,4.,0.8
1979-03-01 15:05:04.960 ,6,0,2.,0.8,0.,0.8,0.,0.8,3.,0.8
1979-03-01 15:05:05.760 ,6,0,1.,0.8,0.,0.8,0.,0.8,6.,0.8
1979-03-01 15:05:06.560 ,6,0,2.,0.8,0.,0.8,0.,0.8,3.,0.8
1979-03-01 15:05:07.360 ,6,0,1.,0.8,0.,0.8,0.,0.8,6.,0.8
1979-03-01 15:05:08.160 ,6,0,2.,0.8,0.,0.8,1.,0.8,4.,0.8
1979-03-01 15:05:08.960 ,6,0,0.,0.8,0.,0.8,0.,0.8,1.,0.8
1979-03-01 15:05:09.760 ,6,0,2.,0.8,0.,0.8,0.,0.8,2.,0.8
1979-03-01 15:05:10.560 ,6,0,2.,0.8,0.,0.8,0.,0.8,5.,0.8
1979-03-01 15:05:11.360 ,6,0,2.,0.8,0.,0.8,1.,0.8,7.,0.8
1979-03-01 15:05:12.160 ,6,0,1.,0.8,0.,0.8,0.,0.8,4.,0.8
1979-03-01 15:05:12.960 ,6,0,3.,0.8,0.,0.8,0.,0.8,5.,0.8
1979-03-01 15:05:13.760 ,6,0,2.,0.8,0.,0.8,0.,0.8,8.,0.8
1979-03-01 15:05:14.560 ,6,0,1.,0.8,0.,0.8,0.,0.8,2.,0.8
1979-03-01 15:05:15.360 ,6,0,1.,0.8,0.,0.8,0.,0.8,9.,0.8
1979-03-01 15:05:16.160 ,6,0,1.,0.8,0.,0.8,0.,0.8,3.,0.8
1979-03-01 15:05:16.960 ,6,0,3.,0.8,0.,0.8,0.,0.8,1.,0.8
1979-03-01 15:05:17.760 ,6,0,1.,0.8,0.,0.8,0.,0.8,2.,0.8
1979-03-01 15:05:18.560 ,6,0,2.,0.8,0.,0.8,0.,0.8,5.,0.8
1979-03-01 15:05:19.360 ,6,0,2.,0.8,0.,0.8,0.,0.8,4.,0.8
1979-03-01 15:05:20.160 ,6,0,2.,0.8,0.,0.8,1.,0.8,2.,0.8
1979-03-01 15:05:20.960 ,6,0,2.,0.8,0.,0.8,1.,0.8,7.,0.8
1979-03-01 15:05:21.760 ,6,0,1.,0.8,0.,0.8,0.,0.8,1.,0.8
1979-03-01 15:05:22.560 ,6,0,1.,0.8,0.,0.8,0.,0.8,3.,0.8
1979-03-01 15:05:23.360 ,6,0,1.,0.8,0.,0.8,0.,0.8,4.,0.8
1979-03-01 15:05:24.160 ,5,0,1.,0.8,0.,0.8,0.,0.8,4.,0.8